Stations météo

réclame
Mon MeteoGroup
Aberporth, Grande-Bretagne (3502): Température de l'air & dewpoint: 22.10.2020 02:00:00 - 28.10.2020 02:00:00 (GMT)Aberporth, Grande-Bretagne (3502): Température de l'air -20cm & Température de l'air -100cm: 22.10.2020 02:00:00 - 28.10.2020 02:00:00 (GMT)Aberporth, Grande-Bretagne (3502): Vitesse du vent & gusts: 22.10.2020 02:00:00 - 28.10.2020 02:00:00 (GMT)Aberporth, Grande-Bretagne (3502): Direction du vent: 22.10.2020 02:00:00 - 28.10.2020 02:00:00 (GMT)Aberporth, Grande-Bretagne (3502): reduced air pressure: 22.10.2020 02:00:00 - 28.10.2020 02:00:00 (GMT)Aberporth, Grande-Bretagne (3502): visibility: 22.10.2020 02:00:00 - 28.10.2020 02:00:00 (GMT)Aberporth, Grande-Bretagne (3502): Ensoleillement: 22.10.2020 02:00:00 - 28.10.2020 02:00:00 (GMT)Aberporth, Grande-Bretagne (3502): Quantités de précipitations: 22.10.2020 02:00:00 - 28.10.2020 02:00:00 (GMT)
Date & Time tt [°C] td [°C] tt -20cm [°C] tt -100cm [°C] ff [km/h] ff [knt] fx [km/h] fx [knt] dd ppp [hPa] vv [km] sd [min] rr [mm]
28.10.2020 02:00:00 7,3 5,5 - - 26 14 - - SW 996,2 30 0 0,0
28.10.2020 01:00:00 7,6 5,7 - - 31 17 50 27 SSW 996,1 50 0 0,0
28.10.2020 00:00:00 8,4 5,9 - - 31 17 48 26 SW 996,0 20 - 0,0
27.10.2020 23:00:00 8,2 5,9 - - 22 12 - - SSW 995,8 16 0 0,2
27.10.2020 22:00:00 8,2 5,9 - - 21 11 - - SSW 995,8 18 0 0,0
27.10.2020 21:00:00 8,5 5,6 - - 21 11 - - SSW 995,7 19 0 0,0
27.10.2020 20:00:00 8,4 5,1 - - 24 13 48 26 SW 995,4 21 0 0,0
27.10.2020 19:00:00 9,0 4,3 - - 39 21 67 36 WSW 995,1 23 0 0,0
27.10.2020 18:00:00 10,5 4,4 - - 48 26 67 36 WSW 994,4 23 0 0,0
27.10.2020 17:00:00 10,2 6,0 - - 44 24 55 30 WSW 994,0 16 0 0,0
27.10.2020 16:00:00 10,3 6,5 - - 37 20 54 29 WSW 993,5 17 48 0,0
27.10.2020 15:00:00 10,2 6,1 - - 39 21 68 37 W 993,2 20 36 0,0
27.10.2020 14:00:00 11,9 7,6 - - 44 24 68 37 W 992,7 18 24 0,0
27.10.2020 13:00:00 11,4 9,2 - - 34 18 55 30 WSW 992,1 24 0 0,0
27.10.2020 12:00:00 10,2 9,3 - - 44 24 65 35 W 991,3 11 0 0,6
27.10.2020 11:00:00 12,6 11,1 - - 41 22 55 30 SW 990,3 25 0 0,0
27.10.2020 10:00:00 12,4 12,3 - - 29 16 48 26 S 990,0 6 0 0,6
27.10.2020 09:00:00 10,7 10,5 11,7 12,7 35 19 61 33 S 990,1 6 0 0,0
27.10.2020 08:00:00 9,7 9,4 - - 42 23 63 34 S 990,9 4,7 0 0,0
27.10.2020 07:00:00 9,7 9,4 - - 37 20 57 31 S 992,0 4,9 0 0,0
27.10.2020 06:00:00 9,1 8,7 - - 31 17 46 25 S 993,5 13 0 0,0
27.10.2020 05:00:00 8,8 8,0 - - 29 16 - - S 995,4 28 0 0,0
27.10.2020 04:00:00 8,4 7,5 - - 22 12 - - S 996,5 27 0 0,4
27.10.2020 03:00:00 8,1 6,6 - - 21 11 - - S 997,9 25 0 0,0
27.10.2020 02:00:00 7,8 6,4 - - 21 11 - - S 999,1 30 0 0,0
27.10.2020 01:00:00 7,3 5,8 - - 16 9 - - SSW 999,9 30 0 0,0
27.10.2020 00:00:00 8,6 5,8 - - 16 9 - - SW 1000,5 40 - 0,0
26.10.2020 23:00:00 9,5 6,1 - - 24 13 - - W 1001,0 27 0 0,0
26.10.2020 22:00:00 9,5 6,7 - - 29 16 46 25 W 1001,4 35 0 0,0
26.10.2020 21:00:00 9,9 6,9 - - 31 17 - - W 1001,1 30 0 0,0
26.10.2020 20:00:00 10,5 7,0 - - 34 18 46 25 W 1000,7 35 0 0,0
26.10.2020 19:00:00 10,5 7,3 - - 37 20 50 27 W 1000,4 26 0 1,4
26.10.2020 18:00:00 9,4 8,2 - - 22 12 57 31 W 1000,2 8 0 1,4
26.10.2020 17:00:00 10,8 7,4 - - 39 21 52 28 W 999,9 24 30 0,0
26.10.2020 16:00:00 11,3 7,2 - - 35 19 50 27 W 999,5 15 60 0,0
26.10.2020 15:00:00 11,4 7,6 - - 37 20 48 26 W 999,3 18 36 0,0
26.10.2020 14:00:00 11,2 6,8 - - 37 20 50 27 W 999,1 18 42 0,0
26.10.2020 13:00:00 11,1 7,2 - - 41 22 52 28 W 999,0 14 24 0,0
26.10.2020 12:00:00 10,6 7,3 - - 39 21 52 28 W 998,9 19 18 0,0
26.10.2020 11:00:00 10,5 7,4 - - 37 20 54 29 W 998,1 12 18 0,0
26.10.2020 10:00:00 10,5 7,2 - - 35 19 59 32 W 997,3 17 18 0,0
26.10.2020 09:00:00 10,5 7,0 11,7 12,9 42 23 61 33 WNW 996,4 20 6 0,0
26.10.2020 08:00:00 10,4 7,5 - - 42 23 61 33 WNW 995,4 20 0 0,0
26.10.2020 07:00:00 10,4 8,3 - - 44 24 65 35 W 994,1 23 0 0,0
26.10.2020 06:00:00 10,4 8,1 - - 50 27 70 38 W 993,2 18 0 0,2
26.10.2020 05:00:00 9,7 8,6 - - 46 25 67 36 W 992,5 10 0 0,6
26.10.2020 04:00:00 9,4 7,9 - - 46 25 65 35 W 992,7 11 0 0,2
26.10.2020 03:00:00 9,9 6,8 - - 39 21 54 29 WSW 992,8 17 0 0,0
26.10.2020 02:00:00 9,4 6,9 - - 31 17 48 26 WSW 993,1 30 0 0,0
26.10.2020 01:00:00 8,4 6,7 - - 26 14 - - SW 992,8 21 0 0,0
26.10.2020 00:00:00 8,3 6,2 - - 26 14 - - SW 993,1 24 - 0,0
25.10.2020 23:00:00 8,3 6,5 - - 26 14 - - SW 993,1 40 0 0,0
25.10.2020 22:00:00 7,6 6,6 - - 18 10 - - SSW 993,2 4,4 0 0,2
25.10.2020 21:00:00 7,2 5,8 - - 21 11 - - SSW 993,2 24 0 0,0
25.10.2020 20:00:00 6,5 5,4 - - 21 11 - - SSW 993,0 35 0 0,0
25.10.2020 19:00:00 6,7 5,6 - - 16 9 - - SSW 993,3 45 0 0,0
25.10.2020 18:00:00 7,2 5,6 - - 16 9 - - SSW 992,8 50 0 0,0
25.10.2020 17:00:00 8,2 6,7 - - 22 12 - - SW 992,5 40 6 0,2
25.10.2020 16:00:00 8,6 7,2 - - 24 13 - - SW 992,1 35 12 0,2
25.10.2020 15:00:00 9,6 6,6 - - 24 13 - - SW 991,7 50 24 0,6
25.10.2020 14:00:00 9,4 6,8 - - 26 14 - - SSW 991,8 40 42 0,0
25.10.2020 13:00:00 9,2 7,6 - - 22 12 - - SSW 991,9 35 6 0,6
25.10.2020 12:00:00 9,0 6,8 - - 22 12 - - SSW 992,2 13 0 0,0
25.10.2020 11:00:00 8,8 6,4 - - 24 13 - - SSW 992,1 30 6 0,0
25.10.2020 10:00:00 9,1 6,9 - - 22 12 - - SSW 992,0 23 6 0,0
25.10.2020 09:00:00 8,7 6,8 12,0 13,0 21 11 - - SSW 992,0 27 0 0,0
25.10.2020 08:00:00 8,1 6,4 - - 24 13 - - SSW 991,5 15 0 0,0
25.10.2020 07:00:00 7,6 5,2 - - 29 16 - - SSW 990,8 45 0 0,0
25.10.2020 06:00:00 8,4 4,5 - - 26 14 50 27 SSW 990,5 50 0 0,0
25.10.2020 05:00:00 8,0 5,7 - - 26 14 50 27 SSW 990,2 45 0 0,0
25.10.2020 04:00:00 8,0 6,6 - - 44 24 59 32 WSW 990,8 20 0 0,6
25.10.2020 03:00:00 7,9 6,2 - - 26 14 - - S 990,5 29 0 0,2
25.10.2020 02:00:00 7,8 5,6 - - 24 13 - - S 991,1 30 0 0,2
25.10.2020 01:00:00 6,8 5,2 - - 21 11 - - S 991,4 23 0 0,0
25.10.2020 00:00:00 - - - - - - - - - - - - -
24.10.2020 23:00:00 7,0 5,3 - - 22 12 - - SSW 991,9 29 0 0,0
24.10.2020 22:00:00 7,3 5,5 - - 22 12 - - SSW 991,8 28 0 0,0
24.10.2020 21:00:00 7,8 6,6 - - 26 14 - - S 991,6 35 0 0,0
24.10.2020 20:00:00 8,3 7,4 - - 21 11 - - SSW 991,7 29 0 0,0
24.10.2020 19:00:00 8,3 7,3 - - 24 13 - - SSW 991,9 45 0 0,0
24.10.2020 18:00:00 8,3 7,0 - - 22 12 - - SSW 991,6 50 0 0,0
24.10.2020 17:00:00 8,2 7,3 - - 16 9 - - SSW 991,9 45 0 0,0
24.10.2020 16:00:00 9,3 7,7 - - 29 16 52 28 WSW 991,7 40 0 0,0
24.10.2020 15:00:00 9,5 8,9 - - 39 21 50 27 WSW 991,9 14 0 1,2
24.10.2020 14:00:00 10,7 10,3 - - 26 14 - - S 992,0 10 0 1,8
24.10.2020 13:00:00 10,3 9,8 - - 22 12 46 25 S 993,5 11 0 2,4
24.10.2020 12:00:00 11,0 9,9 - - 29 16 48 26 SSW 994,7 19 0 0,8
24.10.2020 11:00:00 11,1 10,3 - - 29 16 52 28 SSW 995,6 10 0 1,4
24.10.2020 10:00:00 11,5 10,5 - - 28 15 54 29 SW 996,1 12 0 0,4
24.10.2020 09:00:00 12,0 10,7 12,2 13,0 35 19 59 32 SSW 995,9 12 0 0,4
24.10.2020 08:00:00 12,5 11,4 - - 41 22 65 35 SSW 995,7 14 0 0,8
24.10.2020 07:00:00 12,4 11,8 - - 46 25 70 38 S 996,3 6 0 0,2
24.10.2020 06:00:00 11,7 11,2 - - 46 25 65 35 S 997,3 3,9 0 0,6
24.10.2020 05:00:00 11,4 10,5 - - 46 25 70 38 S 998,1 7 0 0,2
24.10.2020 04:00:00 10,7 9,3 - - 55 30 81 44 S 999,2 6 0 0,0
24.10.2020 03:00:00 11,1 8,2 - - 41 22 63 34 S 999,4 19 0 0,0
24.10.2020 02:00:00 10,7 7,6 - - 37 20 59 32 S 1001,8 22 0 0,0
24.10.2020 01:00:00 10,0 7,5 - - 39 21 55 30 S 1002,8 27 0 0,0
24.10.2020 00:00:00 9,3 6,6 - - 29 16 - - SSW 1004,4 35 - 0,0
23.10.2020 23:00:00 8,9 6,2 - - 26 14 - - SSW 1005,6 26 0 0,0
23.10.2020 22:00:00 7,1 5,1 - - 26 14 - - S 1006,4 35 0 0,0
23.10.2020 21:00:00 7,0 4,8 - - 22 12 - - S 1007,0 29 0 0,0
23.10.2020 20:00:00 6,7 4,7 - - 18 10 - - S 1007,5 27 0 0,0
23.10.2020 19:00:00 6,9 4,5 - - 16 9 - - SSW 1008,1 30 0 0,0
23.10.2020 18:00:00 7,4 4,4 - - 16 9 - - SSW 1007,8 45 0 0,0
23.10.2020 17:00:00 8,8 4,8 - - 22 12 - - SW 1007,6 35 18 0,0
23.10.2020 16:00:00 10,1 4,8 - - 29 16 - - WSW 1007,6 35 36 0,0
23.10.2020 15:00:00 10,4 4,5 - - 26 14 - - WSW 1007,5 28 18 0,0
23.10.2020 14:00:00 10,9 5,5 - - 29 16 - - W 1007,3 30 48 0,0
23.10.2020 13:00:00 10,9 5,9 - - 29 16 - - W 1006,8 11 48 0,0
23.10.2020 12:00:00 10,7 7,1 - - 29 16 - - W 1006,7 16 12 0,0
23.10.2020 11:00:00 10,6 6,3 - - 31 17 - - WNW 1005,8 19 6 0,0
23.10.2020 10:00:00 10,1 8,5 - - 24 13 - - WSW 1005,0 45 6 0,2
23.10.2020 09:00:00 9,3 8,8 12,4 13,2 35 19 48 26 S 1004,3 3,8 0 0,4
23.10.2020 08:00:00 9,1 7,7 - - 34 18 46 25 S 1003,9 17 0 0,0
23.10.2020 07:00:00 8,5 6,6 - - 26 14 - - S 1004,1 45 0 0,0
23.10.2020 06:00:00 7,6 5,8 - - 18 10 - - S 1004,9 50 0 0,0
23.10.2020 05:00:00 6,8 5,1 - - 21 11 - - S 1005,3 27 0 0,0
23.10.2020 04:00:00 6,5 4,7 - - 18 10 - - S 1005,7 50 0 0,0
23.10.2020 03:00:00 5,4 3,8 - - 15 8 - - S 1006,3 45 0 0,0
23.10.2020 02:00:00 4,5 2,6 - - 15 8 - - S 1007,3 40 0 0,0
23.10.2020 01:00:00 5,1 2,7 - - 15 8 - - S 1007,8 30 0 0,0
23.10.2020 00:00:00 4,1 2,3 - - 15 8 - - S 1008,3 35 - 0,0
22.10.2020 23:00:00 4,0 2,3 - - 16 9 - - S 1009,0 40 0 0,0
22.10.2020 22:00:00 3,6 2,2 - - 16 9 - - S 1009,2 35 0 0,0
22.10.2020 21:00:00 3,9 2,4 - - 15 8 - - SSW 1009,7 35 0 0,0
22.10.2020 20:00:00 5,6 3,0 - - 13 7 - - SSW 1009,7 29 0 0,0
22.10.2020 19:00:00 6,9 3,1 - - 13 7 - - SSW 1009,7 50 0 0,0
22.10.2020 18:00:00 7,2 2,2 - - 15 8 - - SW 1009,6 45 0 0,0
22.10.2020 17:00:00 9,0 3,8 - - 11 6 - - SW 1009,3 50 0 0,0
22.10.2020 16:00:00 10,0 3,4 - - 16 9 - - W 1009,0 35 6 0,0
22.10.2020 15:00:00 10,5 3,9 - - 18 10 - - W 1008,8 40 36 0,0
22.10.2020 14:00:00 10,8 3,8 - - 21 11 - - W 1008,6 40 48 0,0
22.10.2020 13:00:00 10,5 4,4 - - 21 11 - - W 1008,6 23 54 0,0
22.10.2020 12:00:00 10,5 5,0 - - 18 10 - - W 1008,8 40 12 0,0
22.10.2020 11:00:00 10,1 6,2 - - 21 11 - - W 1008,6 24 6 0,0
22.10.2020 10:00:00 9,8 6,5 - - 22 12 - - W 1008,2 14 6 0,0
22.10.2020 09:00:00 9,6 7,0 12,7 13,2 22 12 - - W 1007,8 23 0 0,0
22.10.2020 08:00:00 9,1 6,5 - - 22 12 - - W 1007,0 21 0 0,0
22.10.2020 07:00:00 9,0 6,5 - - 22 12 - - W 1006,1 20 0 0,0
22.10.2020 06:00:00 9,1 6,3 - - 29 16 - - W 1005,4 25 0 0,0
22.10.2020 05:00:00 8,6 5,7 - - 22 12 - - W 1005,0 35 0 0,0
22.10.2020 04:00:00 9,4 5,4 - - 22 12 - - W 1004,5 35 0 0,0
22.10.2020 03:00:00 9,6 6,3 - - 22 12 - - W 1004,0 45 0 0,0
22.10.2020 02:00:00 9,4 6,5 - - 21 11 - - W 1003,7 40 0 0,0

tt = Température de l'air
td = dewpoint
tt -20cm = Température de l'air -20cm
tt -100cm = Température de l'air -100cm
ff = Vitesse du vent
fx = gusts
dd = Direction du vent
ppp = reduced air pressure
vv = visibility
sd = Ensoleillement
rr = Quantités de précipitations

stations d'obs. à proximité